STARLINK-1724 (46375 NORAD) Tracking and Keplerian Element Data

This shows tracking and keplerian element data for the satellite.

Feedback or suggestion? Click here.




ElementValue
Catalog46375
NameSTARLINK-1724
Epoch Orbit402
Epoch Day267.83334491
Epoch Year2020
RAAN329.7584
Inclination52.9999
Eccentricity0.0001107
Argument of Perigee58.4481
Mean Anonmoly194.9704
Mean Motion15.62761155
Decay Rate-0.00020699
L11 46375U 20062BC 20267.83334491 -.00020699 00000-0 -22072-3 0 9991
L22 46375 52.9999 329.7584 0001107 58.4481 194.9704 15.62761155 4026

Live tracking and technical data element details for STARLINK-1724 (NORAD 46375). STARLINK-1724 can be tracked NOW for your location showing map with azimuth and elevation plus other details from your city location.

Track the satellite on the map from your city or location and see movement details for azimuth, elevation, latitude, longitude, range, height, and movement on the map or in text.







IsCatalogInMostPopularTable: catalog: 46375, numindb: 3
Update: records affected: 1



GetName: 46375 STARLINK-1724

Hit Count: updated at: Thu, 24 Sep 2020 18:15:47 GMT